Regional Weather Roundup
Issued by NWS

Home | Current Version | Previous Version | Text Only | Print | Product List | Glossary On
Versions: 1 2 3 4 5 6 7 8 9 10 11 12 13 14 15 16 17 18 19 20 21 22 23 24 25 26 27
000
ASUS42 KTBW 201610
RWRFL
FLORIDA REGIONAL WEATHER ROUNDUP
NATIONAL WEATHER SERVICE TAMPA BAY RUSKIN FL
1200 PM EDT SUN APR 20 2014

NOTE: "FAIR" INDICATES FEW OR NO CLOUDS BELOW 12,000 FEET WITH NO
SIGNIFICANT WEATHER AND/OR OBSTRUCTIONS TO VISIBILITY.


FLZ001>010-012>015-112-114-115-201700-
PANHANDLE FLORIDA

CITY           SKY/WX    TMP DP  RH WIND       PRES   REMARKS
PENSACOLA      CLOUDY    63  50  62 N12       30.19S
PENSACOLA NAS  PTSUNNY   66  52  60 NE13      30.18S
MILTON NAS     CLOUDY    59  50  72 NE6       30.20S
CRESTVIEW      CLOUDY    59  51  75 N10       30.21F
DUKE FIELD     CLOUDY    57  50  77 N15       30.19S
VALPARAISO     CLOUDY    60  52  75 N8        30.18S
MARY ESTHER    CLOUDY    59  48  68 NE14      30.18S
PANAMA CITY    CLOUDY    60  52  74 N13       30.16F
TYNDALL AFB    CLOUDY    60  53  77 N12       30.16F
APALACHICOLA   CLOUDY    64  53  67 N12       30.14F

STATION/POSITION SKY/WX   TEMP    WIND        PRES    WAVE   SWELL
                          AIR SEA DIR/SP/G            HT/PER HT/PER
                          (F)     (DEG/KT/KT) (MB)    (FT/S) (FT/S)
30.1N   87.6W              61 66   50/ 14/ 17 1022.0R   2/ 5
29.2N   88.2W              64 71   20/ 14/ 16 1021.9R
28.8N   86.0W              62 68   30/ 10/ 12 1021.3R   3/ 5   2/ 5
PANAMA CITY BEAC           58 66   40/  9/ 11 1021.6S
CAPE SAN BLAS    NOT AVBL
TOWER C                    59      40/ 13/ 15 1020.5F
28.5N   84.5W              63 68   10/ 16/ 17 1019.9R   3/ 5

$$
FLZ011-016>038-118-127-128-134-139-239-201700-
NORTH FLORIDA

CITY           SKY/WX    TMP DP  RH WIND       PRES   REMARKS
MARIANNA       CLOUDY    57  52  83 N9        30.19S
TALLAHASSEE    CLOUDY    60  51  72 N10       30.17S
PERRY          CLOUDY    59  55  88 N10       30.16S
CROSS CITY       N/A     62  53  72 N10       30.13F
GAINESVILLE    CLOUDY    60  53  77 N9        30.12S
MAYPORT NAS    CLOUDY    60  53  77 N8        30.12S
JACKSONVILLE   CLOUDY    58  55  90 NW9       30.12S
JAX NAS        CLOUDY    60  53  77 N10       30.13R
JAX CRAIG      CLOUDY    62  53  72 N12       30.12S
JAX CECIL      CLOUDY    57  54  88 N6        30.12S
FERNANDINA BEA CLOUDY    57  54  88 N9G16     30.11S
ST AUGUSTINE   CLOUDY    60  56  86 N12       30.11R FOG

STATION/POSITION SKY/WX   TEMP    WIND        PRES    WAVE   SWELL
                          AIR SEA DIR/SP/G            HT/PER HT/PER
                          (F)     (DEG/KT/KT) (MB)    (FT/S) (FT/S)
SHELL POINT                58      20/  8/ 11 1020.1R
KEATON BEACH               59     360/  9/ 13 1020.5F
CEDAR KEY                  61      10/  5/  6 1020.3F
FERNANDINA                 56 65   10/  9/ 15 1019.5R
30.7N   81.3W                 64                N/A     5/ 8   2/11
MAYPORT                    57 66  360/  7/ 11   N/A
31.4N   80.9W              58 63   20/ 17/ 23 1018.6R   6/ 6   2/ 9
ST AUGUSTINE               58     350/ 15/ 17 1019.7R

$$
FLZ040-043>046-052-053-057-058-063-144-201700-
INTERIOR CENTRAL FLORIDA

CITY           SKY/WX    TMP DP  RH WIND       PRES   REMARKS
OCALA          CLOUDY    61  52  72 N7        30.11F
THE VILLAGES     N/A     63  55  77 N7        30.10F
LEESBURG       CLOUDY    65  56  72 NW12      30.10S
SANFORD        CLOUDY    66  57  72 N8        30.07F
ORLANDO EXEC   CLOUDY    66  56  70 N7        30.08S
ORLANDO INTL   PTSUNNY   66  56  70 NW10      30.08S
KISSIMMEE      CLOUDY    64  59  82 N7        30.09R
WINTER HAVEN   CLOUDY    64  59  83 N12       30.09S
LAKELAND       CLOUDY    66  57  72 N7        30.08S
OKEECHOBEE     CLOUDY    64  61  88 N7        30.07R

$$
FLZ041-047-054-059-064-141-147-201700-
EAST CENTRAL FLORIDA

CITY           SKY/WX    TMP DP  RH WIND       PRES   REMARKS
ORMOND BEACH   CLOUDY    63  55  77 N13G21    30.08S
DAYTONA BEACH  CLOUDY    64  56  75 N10       30.08S
JFK SPACE CTR  CLOUDY    65  58  76 N14G21    30.05S
TITUSVILLE     CLOUDY    66  57  72 N16       30.06S
CAPE CANAVERAL MOSUNNY   67  58  73 N18       30.04S
PATRICK AFB    CLOUDY    67  59  74 N17G31    30.05S
MELBOURNE      CLOUDY    67  59  75 NW13      30.05S
VERO BEACH     PTSUNNY   69  61  75 NW10      30.05S
FT PIERCE      CLOUDY    70  59  68 NW13      30.04S
STUART         CLOUDY    68  63  83 NW10G18   30.05R

STATION/POSITION SKY/WX   TEMP    WIND        PRES    WAVE   SWELL
                          AIR SEA DIR/SP/G            HT/PER HT/PER
                          (F)     (DEG/KT/KT) (MB)    (FT/S) (FT/S)
28.5N   80.2W              66 71  340/ 21/ 25 1016.3R
28.9N   78.5W              72 76  250/  8/ 10 1014.5F   6/ 8   7/ 8
TRIDENT PIER               66 73  340/ 13/ 19 1016.9R
28.4N   80.5W                 73                N/A     3/ 7   2/12
27.6N   80.2W                 73                N/A     4/ 9   2/12

$$
FLZ050-056-061-142-242-148-248-149-249-151-251-155-255-
160-260-201700-
WEST CENTRAL FLORIDA

CITY           SKY/WX    TMP DP  RH WIND       PRES   REMARKS
CRYSTAL RIVER  CLOUDY    63  55  77 N6        30.11S
INVERNESS      CLOUDY    61  55  82 N6        30.11S
BROOKSVILLE    CLOUDY    65  56  72 NW6       30.11S
CLEARWATER     CLOUDY    69  58  67 N10       30.08F
TAMPA INTL     CLOUDY    69  58  67 N12       30.08F
TAMPA EXEC     CLOUDY    70  59  68 N9        30.09S
PLANT CITY     CLOUDY    68  61  77 N7        30.10S
MACDILL AFB    CLOUDY    72  62  71 VRB6      30.08S
PETER O KNIGHT CLOUDY    70  59  68 N7        30.08F
ST PETERSBURG  PTSUNNY   70  60  70 NE10      30.06F
SARASOTA       CLOUDY    71  58  63 N8        30.06S
VENICE         PTSUNNY   72  59  64 NW7       30.07F

STATION/POSITION SKY/WX   TEMP    WIND        PRES    WAVE   SWELL
                          AIR SEA DIR/SP/G            HT/PER HT/PER
                          (F)     (DEG/KT/KT) (MB)    (FT/S) (FT/S)
CEDAR KEY                  61      10/  5/  6 1020.3F
28.5N   84.5W              63 68   10/ 16/ 17 1019.9R   3/ 5
27.3N   84.3W                 72                N/A     4/ 6
CLEARWATER BEACH           64 70  360/ 15/ 17 1018.1F
MIDDLE TAMPA BAY           66      20/ 12/ 15 1018.7R
VENICE                     69 74  310/  9/ 11 1017.6F

$$
FLZ066-069-070-075>078-162-262-165-265-201700-
SOUTHWEST FLORIDA AND KEYS

CITY           SKY/WX    TMP DP  RH WIND       PRES   REMARKS
PUNTA GORDA    CLOUDY    72  59  63 NE7       30.08S
FT MYERS       CLOUDY    72  56  57 MISG      30.05F
SOUTHWEST INTL CLOUDY    71  56  58 N6        30.06F
NAPLES         PTSUNNY   72  60  66 N6        30.05F
MARATHON       SUNNY     81  60  48 W10       30.05S
KEY WEST NAS   PTSUNNY   78  59  51 W14       30.06S
KEY WEST INTL  MOSUNNY   76  61  59 NW14      30.07S

STATION/POSITION SKY/WX   TEMP    WIND        PRES    WAVE   SWELL
                          AIR SEA DIR/SP/G            HT/PER HT/PER
                          (F)     (DEG/KT/KT) (MB)    (FT/S) (FT/S)
VENICE                     69 74  310/  9/ 11 1017.6F
NAPLES                     69 75  340/  9/ 11 1018.1F
26.0N   85.6W              70 80   30/ 12/ 16 1019.4R   3/ 6   2/ 6
DRY TORTUGAS     NOT AVBL
NW FL BAY                  74     310/ 13/ 17 1017.8R
SOMBRERO KEY               73     300/ 13/ 15 1018.2F
LONG KEY                   73 78  300/ 14/ 16 1018.2F
MOLASSES REEF              71 78  320/ 10/ 13 1017.4F

$$
FLZ067-068-071>074-168-172>174-201700-
SOUTHEAST FLORIDA

CITY           SKY/WX    TMP DP  RH WIND       PRES   REMARKS
W PALM BEACH   PTSUNNY   72  58  61 NW9       30.03S
FT LAUDER-EXEC PTSUNNY   71  57  61 W12       30.04F
FT LAUDERDALE  PTSUNNY   72  56  57 NW10      30.04S
POMPANO BEACH  CLOUDY    73  58  59 NW13      30.04F
PEMBROKE PINES CLOUDY    72  56  57 NW12      30.06S
OPA LOCKA      CLOUDY    72  56  57 NW16      30.05S
MIAMI          PTSUNNY   75  57  53 NW10G20   30.04F
WEST KENDALL   MOSUNNY   78  58  49 NW17G28   30.04F
HOMESTEAD      MOSUNNY   76  60  58 W13       30.04S

STATION/POSITION SKY/WX   TEMP    WIND        PRES    WAVE   SWELL
                          AIR SEA DIR/SP/G            HT/PER HT/PER
                          (F)     (DEG/KT/KT) (MB)    (FT/S) (FT/S)
PORT EVERGLADES            69     300/ 10/ 15 1017.2
VIRGINIA KEY               73 78  310/  8/ 15 1017.1S
LAKE WORTH                 69 76  300/  5/  9 1016.6F
FOWEY ROCKS                71 78  300/ 12/ 13 1017.2F
SETTLEMENT POINT           70     290/  8/ 10 1016.8F

$$




USA.gov is the U.S. government's official web portal to all federal, state and local government web resources and services.